FW1340 Weather Reports


Display with metric or nautical units.
time (UTC)temp
F
wind
direction
speed
MPH
gust
MPH
rain 1hr
in
rain 24hr
in
rain mn
in
humidity
%
barometer
mb
20260505010100 61 63 0.0 0.0 0.00 0.00 0.00 71 1014.7
20260505004559 62 89 0.0 0.0 0.00 0.00 0.00 70 1014.8
20260505003100 62 77 0.0 0.0 0.00 0.00 0.00 69 1014.7
20260505001628 63 40 0.0 0.0 0.00 0.00 0.00 63 1014.8
20260505000157 63 324 0.0 0.0 0.00 0.00 0.00 62 1014.8
20260504234612 64 274 0.0 0.0 0.00 0.00 0.00 62 1014.7
20260504233105 64 317 0.0 0.0 0.00 0.00 0.00 63 1014.8
20260504231554 64 313 0.0 0.0 0.00 0.00 0.00 62 1014.9
20260504230054 64 319 0.0 0.0 0.00 0.00 0.00 63 1014.9
20260504224608 64 315 0.0 0.0 0.00 0.00 0.00 63 1015.0
20260504223053 64 321 0.0 0.0 0.00 0.00 0.00 63 1015.1
20260504221552 63 348 0.0 0.0 0.00 0.00 0.00 64 1015.1
20260504220051 63 256 0.0 0.0 0.00 0.00 0.00 64 1015.2
20260504214551 63 254 0.0 0.0 0.00 0.00 0.00 61 1015.3
20260504213121 63 274 0.0 0.0 0.00 0.00 0.00 61 1015.3
20260504211548 63 348 0.0 0.0 0.00 0.00 0.00 62 1015.5
20260504210048 63 332 0.0 0.0 0.00 0.00 0.00 63 1015.4
20260504204552 63 246 0.0 0.0 0.00 0.00 0.00 65 1015.5
20260504203057 63 258 0.0 0.0 0.00 0.00 0.00 64 1015.5
20260504201542 62 242 0.0 0.0 0.00 0.00 0.00 69 1015.4
20260504200041 62 263 0.0 0.0 0.00 0.00 0.00 70 1015.4
20260504194547 61 326 0.0 0.0 0.00 0.00 0.00 75 1015.4
20260504193040 60 276 0.0 0.0 0.00 0.00 0.00 79 1015.7
20260504191532 59 199 0.0 0.0 0.00 0.00 0.00 80 1015.7
20260504190027 59 182 0.0 0.0 0.00 0.00 0.00 80 1015.8
20260504184526 59 115 0.0 0.0 0.00 0.00 0.00 80 1015.8
20260504183027 59 119 0.0 0.0 0.00 0.00 0.00 80 1015.7
20260504181524 59 181 0.0 0.0 0.00 0.00 0.00 78 1015.8
20260504180020 59 106 0.0 0.0 0.00 0.00 0.00 75 1015.9
20260504174518 59 138 0.0 0.0 0.00 0.00 0.00 74 1015.8
20260504173030 59 180 0.0 0.0 0.00 0.00 0.00 74 1015.7
20260504171521 58 230 0.0 0.0 0.00 0.00 0.00 75 1015.7
20260504081524 55 261 0.0 0.0 0.00 0.00 0.00 84 1014.6
20260504050004 57 265 0.0 0.0 0.00 0.00 0.00 75 1013.9
20260504044504 57 296 0.0 0.0 0.00 0.00 0.00 73 1013.9
20260504043004 58 278 0.0 0.0 0.00 0.00 0.00 72 1013.7
20260504041559 58 275 0.0 0.0 0.00 0.00 0.00 71 1013.6
20260504040106 59 262 0.0 0.0 0.00 0.00 0.00 69 1013.5
20260504034603 59 252 0.0 0.0 0.00 0.00 0.00 68 1013.3
20260504033108 60 281 0.0 0.0 0.00 0.00 0.00 66 1013.1
20260504031554 61 258 0.0 0.0 0.00 0.00 0.00 65 1012.8
20260504030053 61 243 0.0 0.0 0.00 0.00 0.00 64 1012.5
20260504024552 62 264 0.0 0.0 0.00 0.00 0.00 63 1012.5
20260504023051 62 261 0.0 0.0 0.00 0.00 0.00 62 1012.3
20260504021553 63 265 0.0 0.0 0.00 0.00 0.00 60 1012.0
20260504020050 64 254 0.0 0.0 0.00 0.00 0.00 60 1011.9
20260504014551 65 263 0.0 0.0 0.00 0.00 0.00 60 1011.8
20260504013050 65 271 0.0 0.0 0.00 0.00 0.00 60 1011.7
20260504011550 67 275 0.0 0.0 0.00 0.00 0.00 58 1011.8